Time,TemperatureF,DewpointF,PressureIn,WindDirection,WindDirectionDegrees,WindSpeedMPH,WindSpeedGustMPH,Humidity,HourlyPrecipIn,Conditions,Clouds,dailyrainin,SoftwareType,DateUTC
2013-01-13 09:00:00,58.0,55.1,30.14,SW,225,0.4,0.4,90,0.00,,,0.00,WUHU216HW,2013-01-13 14:00:00,
2013-01-13 09:05:00,58.0,55.1,30.14,SW,225,0.4,1.1,90,0.00,,,0.00,WUHU216HW,2013-01-13 14:05:00,
2013-01-13 09:31:00,61.9,59.3,30.14,WSW,248,1.8,1.8,91,0.00,,,0.00,WUHU216HW,2013-01-13 14:31:00,
2013-01-13 09:36:00,61.9,59.3,30.14,WSW,248,1.8,1.8,91,0.00,,,0.00,WUHU216HW,2013-01-13 14:36:00,
2013-01-13 11:00:00,71.3,63.6,30.14,East,90,1.1,1.1,77,0.00,,,0.00,WUHU216HW,2013-01-13 16:00:00,
2013-01-13 11:05:00,71.3,63.6,30.14,East,90,1.1,1.1,77,0.00,,,0.00,WUHU216HW,2013-01-13 16:05:00,
2013-01-13 11:30:00,72.7,62.8,30.12,WSW,248,4.7,4.7,71,0.00,,,0.00,WUHU216HW,2013-01-13 16:30:00,
2013-01-13 11:35:00,72.7,62.8,30.12,WSW,248,4.7,4.7,71,0.00,,,0.00,WUHU216HW,2013-01-13 16:35:00,
2013-01-13 12:00:00,74.0,64.1,30.11,SSW,203,0.7,0.7,71,0.00,,,0.00,WUHU216HW,2013-01-13 17:00:00,
2013-01-13 12:05:00,74.0,64.1,30.11,SSW,203,0.7,0.7,71,0.00,,,0.00,WUHU216HW,2013-01-13 17:05:00,
2013-01-13 12:30:00,74.5,62.8,30.09,SW,225,3.6,3.6,67,0.00,,,0.00,WUHU216HW,2013-01-13 17:30:00,
2013-01-13 12:35:00,74.5,62.8,30.09,SW,225,3.6,3.6,67,0.00,,,0.00,WUHU216HW,2013-01-13 17:35:00,
2013-01-13 13:00:00,74.3,62.2,30.07,WSW,248,2.5,2.5,66,0.00,,,0.00,WUHU216HW,2013-01-13 18:00:00,
2013-01-13 13:05:00,74.3,62.2,30.07,WSW,248,2.5,2.5,66,0.00,,,0.00,WUHU216HW,2013-01-13 18:05:00,
2013-01-13 13:30:00,75.4,63.3,30.08,SW,225,1.8,1.8,66,0.00,,,0.00,WUHU216HW,2013-01-13 18:30:00,
2013-01-13 13:35:00,75.4,63.3,30.08,SW,225,1.8,1.8,66,0.00,,,0.00,WUHU216HW,2013-01-13 18:35:00,
2013-01-13 14:00:00,76.5,62.1,30.07,SSW,203,4.5,4.5,61,0.00,,,0.00,WUHU216HW,2013-01-13 19:00:00,
2013-01-13 14:05:00,76.5,62.1,30.07,SSW,203,4.5,4.5,61,0.00,,,0.00,WUHU216HW,2013-01-13 19:05:00,
2013-01-13 14:30:00,76.7,61.3,30.06,SW,225,4.5,4.5,59,0.00,,,0.00,WUHU216HW,2013-01-13 19:30:00,
2013-01-13 14:35:00,76.7,61.3,30.06,SW,225,4.5,4.5,59,0.00,,,0.00,WUHU216HW,2013-01-13 19:35:00,
2013-01-13 15:00:00,76.9,60.9,30.07,South,180,1.6,1.6,58,0.00,,,0.00,WUHU216HW,2013-01-13 20:00:00,
2013-01-13 15:05:00,76.9,60.9,30.07,South,180,1.6,1.6,58,0.00,,,0.00,WUHU216HW,2013-01-13 20:05:00,
2013-01-13 15:30:00,76.0,61.6,30.08,SW,225,1.6,1.6,61,0.00,,,0.00,WUHU216HW,2013-01-13 20:30:00,
2013-01-13 15:35:00,76.0,61.6,30.08,SW,225,1.6,1.6,61,0.00,,,0.00,WUHU216HW,2013-01-13 20:35:00,
2013-01-13 16:00:00,75.2,61.4,30.09,SSE,158,0.2,0.2,62,0.00,,,0.00,WUHU216HW,2013-01-13 21:00:00,
2013-01-13 16:05:00,75.2,61.4,30.09,SSE,158,0.2,0.2,62,0.00,,,0.00,WUHU216HW,2013-01-13 21:05:00,
2013-01-13 16:30:00,74.3,61.4,30.09,SSW,203,0.9,0.9,64,0.00,,,0.00,WUHU216HW,2013-01-13 21:30:00,
2013-01-13 16:35:00,74.3,61.4,30.09,SSW,203,0.9,0.9,64,0.00,,,0.00,WUHU216HW,2013-01-13 21:35:00,
2013-01-13 17:00:00,72.7,60.7,30.10,SSW,203,0.0,0.0,66,0.00,,,0.00,WUHU216HW,2013-01-13 22:00:00,
2013-01-13 17:05:00,72.7,60.7,30.10,SSW,203,0.0,0.0,66,0.00,,,0.00,WUHU216HW,2013-01-13 22:05:00,
2013-01-13 18:00:00,66.2,58.4,30.09,South,180,0.0,0.0,76,0.00,,,0.00,WUHU216HW,2013-01-13 23:00:00,
2013-01-13 18:05:00,66.2,58.4,30.09,South,180,0.0,0.0,76,0.00,,,0.00,WUHU216HW,2013-01-13 23:05:00,
2013-01-13 18:10:00,66.2,58.4,30.09,South,180,0.0,0.0,76,0.00,,,0.00,WUHU216HW,2013-01-13 23:10:00,
2013-01-13 18:30:00,64.6,58.0,30.09,SSE,158,1.1,1.1,79,0.00,,,0.00,WUHU216HW,2013-01-13 23:30:00,
2013-01-13 18:35:00,64.6,58.0,30.09,SSE,158,1.1,1.1,79,0.00,,,0.00,WUHU216HW,2013-01-13 23:35:00,
2013-01-13 20:00:00,64.1,57.4,30.09,SSE,158,0.0,0.0,79,0.00,,,0.00,WUHU216HW,2013-01-14 01:00:00,
2013-01-13 20:05:00,64.1,57.4,30.09,South,180,0.2,0.2,79,0.00,,,0.00,WUHU216HW,2013-01-14 01:05:00,
2013-01-13 20:10:00,64.1,57.4,30.09,South,180,0.2,0.2,79,0.00,,,0.00,WUHU216HW,2013-01-14 01:10:00,
2013-01-13 20:30:00,63.5,57.6,30.09,South,180,1.1,1.1,81,0.00,,,0.00,WUHU216HW,2013-01-14 01:30:00,
2013-01-13 20:35:00,63.5,57.6,30.09,South,180,1.1,1.1,81,0.00,,,0.00,WUHU216HW,2013-01-14 01:35:00,
2013-01-13 21:00:00,63.2,57.3,30.09,SSE,158,0.4,0.4,81,0.00,,,0.00,WUHU216HW,2013-01-14 02:00:00,
2013-01-13 21:05:00,63.2,57.3,30.09,SSE,158,0.4,0.4,81,0.00,,,0.00,WUHU216HW,2013-01-14 02:05:00,
2013-01-13 21:30:00,62.5,56.9,30.09,WSW,248,1.8,1.8,82,0.00,,,0.00,WUHU216HW,2013-01-14 02:30:00,
2013-01-13 21:35:00,62.5,56.9,30.09,WSW,248,1.8,1.8,82,0.00,,,0.00,WUHU216HW,2013-01-14 02:35:00,
2013-01-13 22:00:00,61.9,56.7,30.11,WSW,248,0.4,0.4,83,0.00,,,0.00,WUHU216HW,2013-01-14 03:00:00,
2013-01-13 22:05:00,61.9,56.7,30.11,WSW,248,0.4,0.4,83,0.00,,,0.00,WUHU216HW,2013-01-14 03:05:00,